When you browse on this site, cookies collect data to enhance your experience and personalize the content and advertising you see.
Visit our Privacy Policy to learn more. By continuing to use the site, you agree to this use of cookies and data.

Hourly Weather Moluprei

Today, 20 September, Sunday

Time Temperature Precipitation Wind Pressure Humidity
00:00 +27°C° 0.2 mm 3 mps 755 mmHg 95%
01:00 +26°C° 0 mm 2 mps 755 mmHg 96%
02:00 +26°C° 0.3 mm 2 mps 754 mmHg 96%
03:00 +26°C° 0.3 mm 2 mps 754 mmHg 96%
04:00 +26°C° 0.3 mm 2 mps 754 mmHg 96%
05:00 +26°C° 0 mm 2 mps 754 mmHg 95%
06:00 +27°C° 0 mm 2 mps 755 mmHg 94%
07:00 +27°C° 0 mm 2 mps 755 mmHg 92%
08:00 +28°C° 0.1 mm 2 mps 756 mmHg 87%
09:00 +29°C° 0.1 mm 3 mps 756 mmHg 82%
10:00 +31°C° 0.1 mm 3 mps 756 mmHg 77%
11:00 +31°C° 1.6 mm 3 mps 756 mmHg 76%
12:00 +33°C° 1.6 mm 3 mps 755 mmHg 74%
13:00 +33°C° 0 mm 3 mps 755 mmHg 76%
14:00 +31°C° 2.8 mm 3 mps 755 mmHg 79%
15:00 +31°C° 2.8 mm 3 mps 754 mmHg 81%
16:00 +30°C° 2.8 mm 3 mps 754 mmHg 83%
17:00 +29°C° 1.6 mm 2 mps 755 mmHg 86%
18:00 +29°C° 1.6 mm 1 mps 755 mmHg 89%
19:00 +26°C° 1.6 mm 0 mps 756 mmHg 92%
20:00 +25°C° 1.5 mm 0 mps 756 mmHg 93%
21:00 +25°C° 1.5 mm 0 mps 757 mmHg 94%
22:00 +27°C° 1.5 mm 1 mps 758 mmHg 96%
23:00 +26°C° 1.7 mm 1 mps 757 mmHg 96%

Tomorrow, 21 September, Monday

Time Temperature Precipitation Wind Pressure Humidity
00:00 +26°C° 1.7 mm 1 mps 757 mmHg 97%
01:00 +26°C° 1.7 mm 1 mps 757 mmHg 97%
02:00 +26°C° 1 mm 1 mps 757 mmHg 97%
03:00 +26°C° 1 mm 1 mps 756 mmHg 96%
04:00 +26°C° 1 mm 1 mps 756 mmHg 96%
05:00 +26°C° 0.2 mm 1 mps 756 mmHg 96%
06:00 +26°C° 0.2 mm 1 mps 756 mmHg 96%
07:00 +26°C° 0.2 mm 1 mps 757 mmHg 95%
08:00 +27°C° 0.1 mm 1 mps 757 mmHg 93%
09:00 +27°C° 0.1 mm 2 mps 758 mmHg 91%
10:00 +28°C° 0.1 mm 2 mps 758 mmHg 88%
11:00 +29°C° 0.1 mm 2 mps 757 mmHg 83%
12:00 +30°C° 0.1 mm 2 mps 757 mmHg 78%
13:00 +31°C° 0.1 mm 3 mps 756 mmHg 73%
14:00 +31°C° 0.1 mm 3 mps 755 mmHg 73%
15:00 +31°C° 0.1 mm 3 mps 755 mmHg 73%
16:00 +31°C° 0.1 mm 3 mps 754 mmHg 73%
17:00 +30°C° 0 mm 2 mps 754 mmHg 77%
18:00 +29°C° 0 mm 2 mps 755 mmHg 81%
19:00 +28°C° 0 mm 2 mps 755 mmHg 85%
20:00 +28°C° 0 mm 2 mps 755 mmHg 87%
21:00 +27°C° 0 mm 2 mps 756 mmHg 89%
22:00 +27°C° 0 mm 2 mps 757 mmHg 91%
23:00 +27°C° 0 mm 1 mps 756 mmHg 91%

Day after tomorrow, 22 September, Tuesday

Time Temperature Precipitation Wind Pressure Humidity
00:00 +27°C° 0 mm 1 mps 756 mmHg 90%
01:00 +26°C° 0 mm 1 mps 756 mmHg 90%
02:00 +26°C° 0 mm 1 mps 756 mmHg 90%
03:00 +26°C° 0 mm 1 mps 756 mmHg 90%
04:00 +26°C° 0 mm 1 mps 756 mmHg 89%
05:00 +26°C° 0 mm 1 mps 756 mmHg 89%
06:00 +27°C° 0 mm 1 mps 756 mmHg 89%
07:00 +27°C° 0 mm 1 mps 757 mmHg 88%
08:00 +28°C° 0 mm 1 mps 757 mmHg 82%
09:00 +30°C° 0 mm 1 mps 757 mmHg 75%
10:00 +31°C° 0 mm 1 mps 757 mmHg 69%
11:00 +32°C° 0 mm 2 mps 756 mmHg 65%
12:00 +35°C° 0 mm 2 mps 755 mmHg 61%
13:00 +36°C° 0 mm 2 mps 754 mmHg 57%
14:00 +36°C° 0 mm 2 mps 754 mmHg 57%
15:00 +36°C° 0 mm 2 mps 753 mmHg 57%
16:00 +36°C° 0 mm 2 mps 752 mmHg 56%
17:00 +33°C° 0 mm 1 mps 753 mmHg 62%
18:00 +32°C° 0 mm 1 mps 753 mmHg 68%
19:00 +31°C° 0 mm 1 mps 754 mmHg 74%
20:00 +30°C° 0 mm 1 mps 754 mmHg 76%
21:00 +30°C° 0 mm 1 mps 755 mmHg 79%
22:00 +29°C° 0 mm 1 mps 756 mmHg 82%
23:00 +29°C° 0 mm 2 mps 755 mmHg 84%

23 September, Wednesday

Time Temperature Precipitation Wind Pressure Humidity
00:00 +29°C° 0 mm 2 mps 755 mmHg 85%
01:00 +28°C° 0 mm 2 mps 755 mmHg 87%
02:00 +28°C° 0 mm 2 mps 755 mmHg 88%
03:00 +28°C° 0 mm 1 mps 754 mmHg 88%
04:00 +28°C° 0 mm 1 mps 754 mmHg 89%
05:00 +28°C° 0 mm 1 mps 755 mmHg 89%
06:00 +28°C° 0 mm 1 mps 755 mmHg 88%
07:00 +28°C° 0 mm 1 mps 755 mmHg 88%
08:00 +30°C° 0.1 mm 1 mps 755 mmHg 82%
09:00 +31°C° 0.1 mm 1 mps 755 mmHg 76%
10:00 +33°C° 0.1 mm 1 mps 756 mmHg 70%
11:00 +35°C° 0 mm 2 mps 755 mmHg 65%
12:00 +36°C° 0 mm 2 mps 755 mmHg 60%
13:00 +37°C° 0 mm 2 mps 754 mmHg 56%
14:00 +37°C° 0 mm 2 mps 753 mmHg 57%
15:00 +36°C° 0 mm 2 mps 753 mmHg 58%
16:00 +36°C° 0 mm 2 mps 752 mmHg 59%
17:00 +34°C° 1 mm 2 mps 753 mmHg 67%
18:00 +32°C° 1 mm 2 mps 754 mmHg 75%
19:00 +30°C° 1 mm 2 mps 754 mmHg 83%
20:00 +30°C° 0.1 mm 2 mps 755 mmHg 85%
21:00 +29°C° 0.1 mm 2 mps 755 mmHg 87%
22:00 +29°C° 0.1 mm 2 mps 756 mmHg 88%
23:00 +28°C° 0.2 mm 2 mps 756 mmHg 89%

24 September, Thursday

Time Temperature Precipitation Wind Pressure Humidity
00:00 +28°C° 0.2 mm 2 mps 755 mmHg 91%
01:00 +28°C° 0.2 mm 2 mps 755 mmHg 92%
02:00 +28°C° 0.1 mm 2 mps 755 mmHg 92%
03:00 +28°C° 0.1 mm 2 mps 755 mmHg 92%
04:00 +27°C° 0.1 mm 2 mps 754 mmHg 92%
05:00 +28°C° 0.2 mm 2 mps 755 mmHg 91%
06:00 +28°C° 0.2 mm 2 mps 756 mmHg 90%
07:00 +28°C° 0.2 mm 2 mps 756 mmHg 89%
08:00 +29°C° 0.2 mm 2 mps 756 mmHg 84%
09:00 +30°C° 0.2 mm 2 mps 756 mmHg 78%
10:00 +31°C° 0.2 mm 3 mps 757 mmHg 73%
11:00 +34°C° 0 mm 3 mps 756 mmHg 68%
12:00 +35°C° 0 mm 3 mps 756 mmHg 63%
13:00 +36°C° 0 mm 3 mps 755 mmHg 58%
14:00 +36°C° 0.1 mm 3 mps 755 mmHg 59%
15:00 +35°C° 0.1 mm 3 mps 754 mmHg 61%
16:00 +35°C° 0.1 mm 3 mps 754 mmHg 62%
17:00 +34°C° 0.3 mm 3 mps 754 mmHg 68%
18:00 +31°C° 0.3 mm 2 mps 755 mmHg 75%
19:00 +30°C° 0.3 mm 2 mps 755 mmHg 81%
20:00 +29°C° 0 mm 2 mps 755 mmHg 83%
21:00 +29°C° 0 mm 2 mps 756 mmHg 85%
22:00 +28°C° 0 mm 2 mps 756 mmHg 87%
23:00 +28°C° 0 mm 2 mps 756 mmHg 87%

25 September, Friday

Time Temperature Precipitation Wind Pressure Humidity
00:00 +28°C° 0 mm 1 mps 756 mmHg 88%
01:00 +28°C° 0 mm 1 mps 755 mmHg 88%
02:00 +27°C° 0 mm 1 mps 755 mmHg 88%
03:00 +27°C° 0 mm 2 mps 755 mmHg 89%
04:00 +27°C° 0 mm 2 mps 754 mmHg 89%
05:00 +27°C° 0.4 mm 1 mps 755 mmHg 89%
06:00 +28°C° 0.4 mm 1 mps 755 mmHg 89%
07:00 +28°C° 0.4 mm 1 mps 755 mmHg 89%
08:00 +29°C° 1.9 mm 2 mps 755 mmHg 84%
09:00 +31°C° 1.9 mm 3 mps 756 mmHg 79%
10:00 +33°C° 1.9 mm 3 mps 756 mmHg 73%
11:00 +34°C° 2.7 mm 3 mps 755 mmHg 71%
12:00 +34°C° 2.7 mm 4 mps 754 mmHg 69%
13:00 +34°C° 2.7 mm 4 mps 754 mmHg 68%
14:00 +34°C° 0.8 mm 4 mps 753 mmHg 69%
15:00 +33°C° 0.8 mm 4 mps 753 mmHg 71%
16:00 +33°C° 0.8 mm 4 mps 753 mmHg 73%
17:00 +32°C° 0.1 mm 4 mps 753 mmHg 77%
18:00 +29°C° 0.1 mm 3 mps 754 mmHg 81%
19:00 +28°C° 0.1 mm 3 mps 754 mmHg 84%
20:00 +28°C° 0.3 mm 3 mps 755 mmHg 86%
21:00 +27°C° 0.3 mm 3 mps 755 mmHg 87%
22:00 +27°C° 0.3 mm 3 mps 756 mmHg 88%
23:00 +27°C° 0.2 mm 3 mps 756 mmHg 88%
Show more